{"data":{"norad_id":59853,"intl_designator":"2024-097U","name":"STARLINK-31892","alt_names":[],"object_type":"PAYLOAD","status":"ACTIVE","operator":null,"country":"US","launch_date":"2024-05-23","launch_site_code":"AFETR","launch_vehicle":null,"mission":null,"orbit_class":"UNKNOWN","rcs_meters":null,"size_class":null,"mass_kg":null,"dimensions":null,"purposes":["comms"],"wikipedia_slug":null,"has_3d_model":false,"image_url":null,"decayed_at":null,"tle_current":{"epoch":"2026-05-25T04:30:28.416096Z","epoch_age_seconds":52062,"freshness":"FRESH","line1":"1 59853U 24097U   26145.18782889 -.00000367  00000+0 -38163-5 0  9994","line2":"2 59853  43.0016 202.5568 0001570 281.2247  78.8428 15.27567894113616","mean_motion":15.27567894,"eccentricity":0.000157,"inclination_deg":43.0016,"raan_deg":202.5568,"arg_perigee_deg":281.2247,"mean_anomaly_deg":78.8428,"bstar":-3.8163e-6,"rev_number":11361,"period_min":94.267495779143,"perigee_km":482.00813408984,"apogee_km":484.16255790648,"semimajor_km":6861.2223459982,"source":"CELESTRAK","updated_at":"2026-05-25T13:38:19.088875Z"}}}